View from above orbital plane
|
View from above satellite
|
Ground track
|
The orbit data is extracted from the following two-line orbital elements,
1 40908U 15049K 21016.10477103 .00000400 00000-0 25419-4 0 9992
2 40908 97.4983 18.2362 0016297 12.7055 55.5751 15.14254291294175
Epoch (UTC): | 16 January 2021 02:30:52 |
Eccentricity: | 0.0016297 |
inclination: | 97.4983° |
perigee height: | 512 km |
apogee height: | 534 km |
right ascension of ascending node: | 18.2362° |
argument of perigee: | 12.7055° |
revolutions per day: | 15.14254291 |
mean anomaly at epoch: | 55.5751° |
orbit number at epoch: | 29417 |
The dashed part of the orbit path shows where the satellite is in the earth's shadow,
|
|